CT2HBZ Weather Reports


Display with metric or nautical units.
time (UTC)temp
F
wind
direction
speed
MPH
gust
MPH
rain 1hr
in
rain 24hr
in
rain mn
in
humidity
%
barometer
mb
20260510224415 60 235 5.0 11.0 0.01 0.31 0.31 79 1014.2
20260510223415 60 225 8.0 12.0 0.01 0.31 0.31 80 1014.1
20260510222415 60 223 7.0 15.0 0.01 0.31 0.31 81 1014.2
20260510221416 60 221 5.0 9.0 0.01 0.31 0.31 82 1014.1
20260510220416 61 207 10.0 15.0 0.05 0.31 0.31 80 1014.0
20260510215415 60 215 8.0 17.0 0.06 0.30 0.30 79 1014.1
20260510214415 60 220 5.0 12.0 0.06 0.30 0.30 79 1014.0
20260510213416 60 225 8.0 16.0 0.06 0.30 0.30 79 1013.9
20260510212415 60 215 7.0 12.0 0.06 0.30 0.30 79 1014.0
20260510211415 60 220 7.0 13.0 0.06 0.30 0.30 80 1014.0
20260510210415 62 206 8.0 15.0 0.01 0.26 0.26 75 1013.9
20260510205416 62 209 7.0 13.0 0.00 0.29 0.25 73 1013.6
20260510204416 62 216 7.0 17.0 0.00 0.29 0.25 73 1013.6
20260510203435 62 206 10.0 18.0 0.00 0.29 0.25 71 1013.4
20260510202416 62 218 7.0 11.0 0.00 0.28 0.24 71 1013.4
20260510201415 62 229 8.0 14.0 0.00 0.28 0.24 70 1013.3
20260510200435 62 209 7.0 12.0 0.00 0.28 0.24 70 1013.3
20260510195415 62 214 8.0 13.0 0.00 0.28 0.24 70 1013.2
20260510194436 62 209 8.0 14.0 0.00 0.28 0.24 69 1013.2
20260510193416 62 211 9.0 15.0 0.00 0.28 0.24 69 1013.1
20260510192415 62 216 10.0 17.0 0.00 0.28 0.24 69 1013.0
20260510190416 62 208 7.0 15.0 0.00 0.28 0.24 70 1013.0
20260510185435 62 219 6.0 15.0 0.00 0.28 0.24 70 1013.0
20260510184436 62 209 6.0 13.0 0.00 0.28 0.24 68 1012.9
20260510183435 62 223 4.0 12.0 0.00 0.28 0.24 69 1013.0
20260510182415 62 215 6.0 11.0 0.00 0.28 0.24 69 1013.0
20260510181415 62 211 10.0 18.0 0.00 0.28 0.24 69 1012.9
20260510180435 63 211 12.0 24.0 0.00 0.28 0.24 68 1012.9
20260510175416 63 218 11.0 21.0 0.00 0.28 0.24 66 1012.8
20260510174416 63 218 7.0 14.0 0.00 0.28 0.24 66 1012.8
20260510173435 63 219 8.0 18.0 0.00 0.28 0.24 66 1012.9
20260510172415 63 213 6.0 17.0 0.00 0.28 0.24 67 1012.9
20260510171415 63 217 8.0 12.0 0.00 0.28 0.24 68 1012.9
20260510170416 63 215 12.0 27.0 0.01 0.28 0.24 66 1012.8
20260510165415 63 216 11.0 20.0 0.07 0.28 0.24 66 1012.9
20260510164416 63 209 8.0 20.0 0.07 0.28 0.24 68 1012.8
20260510163415 63 229 8.0 20.0 0.07 0.28 0.24 70 1012.8
20260510162416 62 212 8.0 20.0 0.07 0.28 0.24 73 1012.8
20260510161415 61 214 6.0 10.0 0.07 0.28 0.24 76 1012.8
20260510160416 61 219 13.0 26.0 0.06 0.28 0.24 69 1013.0
20260510155415 64 207 10.0 17.0 0.00 0.24 0.18 60 1012.7
20260510154435 65 216 11.0 22.0 0.00 0.26 0.18 60 1012.7
20260510153435 64 218 12.0 21.0 0.00 0.29 0.18 61 1012.6
20260510152415 65 204 12.0 23.0 0.00 0.36 0.17 59 1012.6
20260510151456 66 212 8.0 13.0 0.00 0.36 0.17 57 1012.8
20260510150416 65 208 12.0 21.0 0.00 0.36 0.17 58 1012.9
20260510145415 65 211 9.0 17.0 0.00 0.38 0.17 58 1013.0
20260510144435 65 213 13.0 21.0 0.00 0.38 0.17 57 1013.0
20260510143435 64 209 9.0 18.0 0.00 0.38 0.17 59 1013.0
20260510142415 64 215 11.0 20.0 0.04 0.38 0.17 59 1013.0
20260510141415 65 210 11.0 21.0 0.04 0.38 0.17 59 1013.0
20260510140416 64 217 9.0 17.0 0.04 0.38 0.17 61 1013.0
20260510135416 64 215 11.0 20.0 0.04 0.38 0.17 63 1013.1
20260510134435 62 230 8.0 12.0 0.04 0.38 0.17 71 1013.3
20260510133415 61 224 7.0 16.0 0.04 0.38 0.17 72 1013.4
20260510132415 65 228 10.0 21.0 0.00 0.35 0.14 52 1013.0
20260510131415 65 215 12.0 20.0 0.00 0.35 0.14 51 1013.1
20260510130415 66 209 12.0 18.0 0.00 0.35 0.14 50 1013.1
20260510125415 67 222 6.0 13.0 0.00 0.34 0.13 49 1013.2
20260510124455 66 222 9.0 22.0 0.00 0.37 0.13 50 1013.2
20260510123415 65 216 8.0 16.0 0.00 0.37 0.13 51 1013.2
20260510122415 65 214 9.0 21.0 0.00 0.37 0.13 50 1013.2
20260510121415 64 223 11.0 21.0 0.00 0.37 0.13 50 1013.2
20260510120436 65 223 12.0 22.0 0.00 0.37 0.13 50 1013.3
20260510115415 65 221 11.0 23.0 0.00 0.37 0.13 51 1013.3
20260510114416 65 217 10.0 22.0 0.00 0.37 0.13 50 1013.3
20260510113415 65 221 10.0 22.0 0.00 0.37 0.13 50 1013.4
20260510112416 65 227 11.0 20.0 0.00 0.37 0.13 47 1013.3
20260510111435 65 224 9.0 19.0 0.00 0.37 0.13 46 1013.3
20260510110415 65 205 10.0 16.0 0.00 0.37 0.13 46 1013.2
20260510105415 66 223 9.0 21.0 0.00 0.37 0.13 46 1013.2
20260510104415 65 212 9.0 17.0 0.00 0.37 0.13 49 1013.3
20260510103416 65 206 13.0 25.0 0.00 0.37 0.13 50 1013.1
20260510102416 65 224 8.0 13.0 0.00 0.37 0.13 48 1013.2
20260510101415 65 222 12.0 22.0 0.00 0.37 0.13 50 1013.0
20260510100415 65 212 9.0 18.0 0.00 0.37 0.13 51 1013.0
20260510095415 64 214 8.0 15.0 0.00 0.37 0.13 52 1013.1
20260510094415 64 200 11.0 23.0 0.00 0.37 0.13 49 1013.0
20260510093415 64 230 12.0 20.0 0.00 0.37 0.13 49 1012.9
20260510092415 63 226 12.0 22.0 0.00 0.37 0.13 52 1012.8
20260510091416 63 220 8.0 19.0 0.00 0.37 0.13 53 1012.8
20260510090436 63 219 8.0 15.0 0.00 0.37 0.13 53 1012.8
20260510085415 63 239 8.0 17.0 0.00 0.37 0.13 51 1012.7
20260510084415 62 207 9.0 16.0 0.00 0.37 0.13 51 1012.7
20260510083415 62 217 12.0 19.0 0.00 0.37 0.13 50 1012.7
20260510082415 62 218 14.0 24.0 0.00 0.37 0.13 53 1012.4
20260510081415 62 205 6.0 14.0 0.00 0.37 0.13 57 1012.5
20260510080415 62 211 8.0 18.0 0.00 0.37 0.13 61 1012.5
20260510075415 61 202 5.0 9.0 0.00 0.37 0.13 66 1012.5
20260510074415 60 210 4.0 9.0 0.00 0.37 0.13 67 1012.5
20260510073415 59 200 3.0 6.0 0.00 0.37 0.13 68 1012.5
20260510072416 58 221 2.0 5.0 0.00 0.37 0.13 70 1012.4
20260510071435 57 231 3.0 4.0 0.00 0.38 0.13 72 1012.5
20260510070415 56 249 1.0 2.0 0.00 0.38 0.13 77 1012.5
20260510065415 55 325 4.0 5.0 0.00 0.38 0.13 78 1012.5
20260510064416 55 348 2.0 5.0 0.00 0.38 0.13 80 1012.3
20260510063417 55 331 5.0 6.0 0.00 0.38 0.13 79 1012.1
20260510062415 54 264 2.0 4.0 0.03 0.38 0.13 79 1012.1
20260510061415 54 220 3.0 5.0 0.10 0.38 0.13 80 1012.1
20260510060415 54 184 3.0 6.0 0.10 0.38 0.13 80 1011.9
20260510055418 54 197 2.0 5.0 0.10 0.39 0.13 78 1011.8
20260510054416 54 218 4.0 7.0 0.10 0.42 0.13 77 1011.9
20260510053415 54 262 8.0 14.0 0.10 0.42 0.13 77 1011.9
20260510052415 56 248 10.0 24.0 0.06 0.43 0.10 78 1012.2
20260510051415 56 269 2.0 4.0 0.00 0.42 0.04 76 1011.5
20260510050415 56 250 3.0 5.0 0.00 0.51 0.04 76 1011.6
20260510045415 56 261 4.0 6.0 0.00 0.54 0.04 75 1011.5
20260510044415 56 226 3.0 6.0 0.00 0.55 0.04 75 1011.4
20260510043415 55 246 4.0 7.0 0.00 0.61 0.04 75 1011.4
20260510042415 56 262 5.0 8.0 0.00 0.62 0.04 76 1011.4
20260510041415 56 251 3.0 7.0 0.01 0.62 0.04 76 1011.4
20260510040435 56 260 5.0 8.0 0.02 0.62 0.04 75 1011.4
20260510035415 56 240 4.0 7.0 0.02 0.62 0.04 75 1011.4
20260510034415 56 230 5.0 11.0 0.02 0.62 0.04 74 1011.3
20260510033415 56 235 5.0 9.0 0.02 0.62 0.04 74 1011.2
20260510032415 57 229 7.0 13.0 0.02 0.62 0.04 72 1011.2
20260510031415 58 222 18.0 29.0 0.01 0.61 0.03 71 1011.1
20260510030416 58 223 4.0 9.0 0.00 0.64 0.02 76 1011.0
20260510025435 58 252 3.0 6.0 0.00 0.66 0.02 77 1010.9
20260510024415 57 223 4.0 7.0 0.00 0.66 0.02 78 1010.9
20260510023415 57 287 2.0 3.0 0.00 0.68 0.02 77 1011.0
20260510022436 57 228 2.0 5.0 0.00 0.68 0.02 78 1011.1
20260510021435 57 173 1.0 2.0 0.00 0.68 0.02 77 1011.1
20260510020416 56 234 2.0 5.0 0.00 0.68 0.02 78 1011.3
20260510015436 57 286 3.0 6.0 0.00 0.68 0.02 76 1011.3
20260510014415 57 218 2.0 6.0 0.00 0.68 0.02 76 1011.4
20260510013415 57 257 1.0 2.0 0.00 0.71 0.02 74 1011.5
20260510012415 58 277 1.0 3.0 0.00 0.79 0.02 73 1011.5
20260510011416 58 233 4.0 6.0 0.00 0.83 0.02 72 1011.6
20260510010415 58 219 3.0 5.0 0.00 0.86 0.02 69 1011.8
20260510005416 58 224 3.0 6.0 0.00 0.91 0.02 67 1011.9
20260510004416 58 221 5.0 9.0 0.02 0.94 0.02 66 1012.0
20260510003415 58 213 4.0 9.0 0.02 1.08 0.02 67 1012.1
20260510002415 58 230 6.0 11.0 0.02 1.08 0.02 68 1012.0
20260510001415 58 229 6.0 12.0 0.02 1.08 0.02 68 1012.1
20260510000418 58 223 5.0 9.0 0.02 1.08 0.02 71 1012.2
20260509235415 59 224 7.0 11.0 0.01 1.08 0.01 71 1012.2
20260509234415 60 220 9.0 16.0 0.00 1.06 0.00 71 1012.4
20260509233416 60 217 4.0 9.0 0.00 1.06 0.00 71 1012.1
20260509232415 60 216 6.0 11.0 0.00 1.06 0.00 68 1012.2
20260509231435 60 214 4.0 9.0 0.00 1.06 0.00 67 1012.1
20260509230435 60 222 5.0 11.0 0.00 1.06 0.00 68 1012.3
20260509225415 60 220 5.0 8.0 0.00 1.06 1.06 69 1012.3